Location: Beaver Meadows
(40.3729°N, 105.6140°W)
Time: 10:32:10
(UTC-06:00)

Iridium 67 - Visible Passes

Search period start: 20 August 2014 00:00
Search period end: 30 August 2014 00:00
Orbit: 776 x 779 km, 86.4° (Epoch: 19 August)

Date Brightness Start Highest point End Pass type
(mag) Time Alt. Az. Time Alt. Az. Time Alt. Az.
20 Aug 7.5 21:28:48 13° ENE 21:28:48 13° ENE 21:30:29 10° NE visible
20 Aug 6.1 23:09:15 55° NNW 23:09:15 55° NNW 23:13:27 10° N visible
21 Aug 5.9 22:35:41 53° NE 22:35:41 53° NE 22:39:54 10° N visible
22 Aug 8.0 00:16:09 14° WNW 00:16:09 14° WNW 00:18:43 10° NW visible
22 Aug 6.4 22:02:06 32° ENE 22:02:06 32° ENE 22:06:01 10° NNE visible
22 Aug 7.3 23:42:34 26° WNW 23:42:34 26° WNW 23:46:26 10° NNW visible
23 Aug 7.0 21:28:30 19° ENE 21:28:30 19° ENE 21:31:38 10° NE visible
23 Aug 6.4 23:08:58 45° WNW 23:08:58 45° WNW 23:13:25 10° N visible
24 Aug 5.6 22:35:21 73° N 22:35:21 73° N 22:40:02 10° N visible
25 Aug 5.8 22:01:43 48° ENE 22:01:43 48° ENE 22:06:21 10° NNE visible
25 Aug 7.7 23:42:11 18° WNW 23:42:21 18° WNW 23:45:54 10° NNW visible
26 Aug 6.5 21:28:05 27° E 21:28:05 27° E 21:32:19 10° NNE visible
26 Aug 6.9 23:08:32 33° W 23:08:34 33° W 23:13:14 10° NNW visible
27 Aug 7.2 20:54:25 15° E 20:54:47 15° ENE 20:57:35 10° NE visible
27 Aug 5.8 22:34:52 61° W 22:34:54 61° W 22:40:04 10° N visible
28 Aug 5.3 22:01:11 72° ESE 22:01:22 73° E 22:06:33 10° N visible
28 Aug 8.1 23:41:38 12° W 23:42:40 13° WNW 23:44:51 10° NW visible
29 Aug 6.0 21:27:28 38° E 21:27:57 39° E 21:32:45 10° NNE visible
29 Aug 7.4 23:07:55 22° W 23:08:47 23° WNW 23:12:53 10° NNW visible
